Dewpoint
69 70 70 70 69 69 69 70 70 70 70 71 71 71 70 71 71 71 71 70 70 70 69 69 69 69 68 67 66 67 66 66
68 69 68 68 69 68 69 69 69 70 70 70 69 70 70 70 70 70 70 70 70 70 69 69 69 68 67 66 66 66 66 66
67 67 67 68 66 68 69 70 69 69 70 69 68 69 69 69 69 69 69 68 69 69 68 68 67 67 66 66 66 66 65 66
65 65 66 66 67 68 69 69 70 69 69 68 68 67 67 68 68 68 68 67 68 68 67 66 66 65 66 66 65 65 65 65
64 65 65 66 66 67 67 67 67 66 66 66 67 67 66 66 66 67 66 66 66 66 65 65 65 65 64 65 65 65 65 65
63 64 65 65 66 66 66 66 68 66 66 67 67 68 66 64 66 65 64 64 63 63 63 63 64 64 63 64 64 64 64 65
64 64 64 65 65 65 65 65 66 66 66 66 68 68 67 65 65 66 63 62 62 62 62 63 63 64 64 63 64 64 64 64
66 65 65 65 65 65 64 65 64 65 65 66 67 67 66 65 65 65 63 63 61 62 62 61 63 64 64 63 64 63 64 64
64 66 65 64 65 64 65 65 64 64 65 66 66 67 66 65 65 64 64 63 61 60 61 61 62 63 63 63 63 63 63 63
59 65 66 64 64 65 64 64 64 64 65 65 65 66 64 64 64 64 63 63 63 62 62 62 61 61 62 62 62 62 63 63
40 63 66 65 65 65 64 64 64 64 65 65 65 65 64 64 65 64 63 63 63 62 62 62 60 61 61 62 62 62 62 63
28 47 65 66 66 66 65 64 65 65 65 65 64 64 64 64 64 63 63 63 62 62 61 61 61 60 61 61 61 62 62 62
28 37 61 66 66 65 64 63 64 65 64 64 64 64 64 64 63 63 63 62 62 62 62 61 60 61 59 59 60 61 61 61
37 40 55 65 65 64 65 64 65 65 65 64 64 64 64 64 63 63 63 63 62 62 61 60 60 61 58 57 54 55 59 61
49 50 53 64 64 65 63 64 63 63 64 64 64 64 64 63 63 63 63 62 61 61 61 60 59 60 59 57 52 52 54 57
47 49 53 61 64 64 62 62 61 62 62 63 64 64 64 63 62 63 62 62 61 61 61 60 59 58 59 58 56 55 52 51
46 47 50 56 64 64 62 62 61 61 63 63 63 63 63 63 62 61 62 62 61 61 60 60 60 59 58 58 56 55 54 52
45 46 48 53 63 64 62 61 61 61 62 61 62 62 62 61 61 61 61 61 60 60 60 60 59 59 59 58 57 54 53 53
43 45 46 50 62 63 63 61 61 60 61 61 61 61 61 60 60 60 61 61 61 60 60 59 59 58 59 58 58 56 54 54
41 43 45 49 61 63 63 63 60 60 61 61 60 60 60 60 60 61 61 60 60 60 59 59 59 59 58 59 58 57 55 55
Lifted_Index
-4 -5 -5 -5 -5 -4 -4 -4 -4 -4 -4 -4 -4 -4 -4 -4 -4 -4 -4 -3 -3 -3 -2 -3 -3 -3 -3 -3 -3 -3 -4 -4
-4 -4 -5 -5 -5 -5 -5 -4 -4 -4 -4 -4 -4 -4 -4 -4 -4 -4 -3 -3 -3 -3 -3 -3 -3 -3 -3 -3 -3 -3 -3 -3
-4 -4 -4 -5 -5 -5 -5 -5 -5 -5 -5 -5 -4 -4 -4 -4 -3 -3 -3 -3 -3 -3 -3 -3 -3 -3 -3 -3 -3 -3 -3 -3
-3 -3 -4 -4 -4 -5 -5 -5 -5 -5 -5 -5 -5 -4 -4 -4 -3 -3 -3 -2 -2 -3 -3 -3 -3 -4 -4 -3 -3 -3 -3 -3
-3 -3 -3 -3 -4 -4 -4 -5 -5 -5 -5 -5 -5 -5 -4 -4 -4 -3 -3 -2 -2 -2 -3 -3 -3 -4 -4 -3 -3 -3 -3 -3
-3 -3 -3 -3 -3 -3 -4 -4 -4 -4 -4 -4 -5 -5 -5 -4 -4 -3 -3 -2 -2 -2 -2 -3 -3 -3 -3 -3 -3 -3 -2 -2
-5 -4 -4 -4 -4 -3 -3 -4 -4 -4 -4 -4 -5 -5 -5 -4 -4 -3 -3 -3 -2 -2 -2 -3 -3 -3 -3 -3 -2 -2 -2 -1
-6 -6 -5 -5 -4 -3 -3 -3 -3 -3 -3 -4 -5 -5 -5 -5 -4 -3 -3 -3 -3 -3 -2 -2 -2 -2 -2 -2 -2 -1 -1 -0
-5 -5 -6 -6 -5 -4 -3 -3 -3 -3 -3 -4 -5 -6 -5 -5 -4 -4 -3 -3 -3 -3 -3 -2 -2 -2 -2 -1 -1 -0 0 1
-2 -4 -5 -6 -6 -5 -4 -4 -3 -3 -3 -4 -5 -5 -6 -5 -4 -4 -4 -3 -3 -3 -3 -3 -2 -2 -1 -1 -0 0 1 1
2 -1 -5 -6 -6 -6 -5 -5 -4 -4 -4 -4 -4 -5 -5 -5 -4 -4 -3 -3 -3 -3 -3 -3 -2 -1 -1 -0 0 0 1 1
5 2 -3 -6 -6 -6 -6 -6 -5 -5 -4 -4 -4 -5 -5 -5 -4 -4 -3 -3 -3 -3 -3 -3 -2 -1 -1 -0 0 0 0 1
6 3 -1 -5 -7 -6 -6 -6 -6 -6 -5 -4 -4 -4 -5 -5 -4 -4 -3 -3 -3 -3 -3 -3 -2 -1 -1 -0 -0 0 0 1
5 4 -0 -4 -6 -7 -6 -6 -6 -6 -6 -5 -4 -4 -5 -5 -5 -4 -4 -3 -3 -3 -3 -2 -2 -1 -0 -0 -0 0 1 1
3 3 1 -3 -6 -6 -6 -6 -5 -6 -6 -5 -5 -5 -5 -6 -5 -5 -4 -4 -3 -3 -3 -3 -2 -1 -0 0 0 1 1 1
2 2 1 -2 -5 -6 -6 -5 -5 -5 -6 -6 -6 -6 -6 -6 -6 -5 -4 -3 -3 -3 -3 -3 -2 -1 -0 0 1 1 1 1
0 0 0 -2 -5 -6 -6 -5 -5 -5 -5 -6 -6 -6 -6 -6 -5 -4 -3 -2 -3 -3 -3 -3 -2 -1 -1 -0 0 1 1 2
0 -1 -1 -2 -5 -7 -7 -6 -5 -5 -5 -5 -5 -6 -6 -5 -5 -3 -2 -2 -2 -3 -3 -3 -2 -1 -1 -0 0 1 1 2
0 -1 -2 -4 -6 -8 -7 -6 -6 -5 -5 -5 -5 -5 -5 -5 -4 -3 -2 -2 -2 -2 -2 -2 -2 -1 -0 -0 0 1 1 1
0 -1 -2 -4 -6 -8 -8 -7 -6 -6 -5 -5 -5 -5 -5 -5 -4 -2 -1 -2 -2 -2 -2 -2 -2 -1 -0 0 0 1 1 1